Flag for Ireland Weather past 2 weeks in Dublin, Ireland

Now
66 °F

Broken clouds.


Feels Like: 66 °F
Forecast: 57 / 73 °F
Wind: 12 mph from Southeast

Location: Dublin Airport

Current Time: Jul 22, 2014 at 9:26:06 PM

Latest Report: Jul 22, 2014 at 6:00 PM


Visibility: N/A

Pressure: 30.24 "Hg

Humidity: 88%

Dew point: 63 °F

Location of DublinLocation

Historic Weather in Dublin — Graph

°F

Dublin temperature yesterday

Maximum temperature yesterday: 72 °F (at 2:00 PM)
Minimum temperature yesterday: 52 °F (at 4:00 AM)
Average temperature yesterday: 64 °F

Past Weeks' High & Low Weather Summary

 TemperatureHumidityPressure
High72 °F (Jul 16, 4:00 PM)100% (Jul 8, 2:00 AM)30.27 "Hg (Jul 8, 2:00 AM)
Low43 °F (Jul 8, 2:00 AM)46% (Jul 9, 5:30 PM)29.71 "Hg (Jul 14, 1:30 PM)
Average61 °F82%29.99 "Hg
* Reported Jul 7 5:00 PM — Jul 22 5:30 PM, Dublin, Weather by CustomWeather, © 2014

Note: Actual official high and low records may vary slightly from our data, if they occured in-between our weather recording intervals... More about our weather records

Advertising

Dublin weather history for previous 24 hours

 ConditionsComfort  
Time TempWeatherWind HumidityBarometerVisibility
5:30 PM
Jul 22
68 °FPartly sunny.10 mph83%30.21 "HgN/A
5:00 PM66 °FPartly sunny.10 mph88%30.21 "HgN/A
4:30 PM66 °FScattered clouds.10 mph88%30.21 "HgN/A
4:00 PM68 °FScattered clouds.12 mph83%30.21 "HgN/A
3:30 PM68 °FBroken clouds.14 mph83%30.21 "HgN/A
3:00 PM66 °FBroken clouds.14 mph88%30.24 "HgN/A
2:30 PM70 °FScattered clouds.14 mph78%30.24 "HgN/A
2:00 PM70 °FScattered clouds.13 mph78%30.24 "HgN/A
1:30 PM70 °FScattered clouds.13 mph78%30.24 "Hg3 mi
1:00 PM70 °FScattered clouds.15 mph78%30.24 "HgN/A
12:30 PM72 °FScattered clouds.14 mph69%30.24 "HgN/A
12:00 PM70 °FPartly sunny.14 mph73%30.24 "HgN/A
11:30 AM70 °FPartly sunny.13 mph73%30.24 "HgN/A
11:00 AM72 °FPartly sunny.12 mph69%30.21 "HgN/A
10:30 AM70 °FBroken clouds.9 mph73%30.21 "HgN/A
10:00 AM70 °FBroken clouds.10 mph73%30.21 "HgN/A
9:30 AM70 °FBroken clouds.9 mph78%30.21 "HgN/A
9:00 AM70 °FBroken clouds.6 mph73%30.21 "HgN/A
8:30 AM68 °FScattered clouds.7 mph78%30.21 "HgN/A
8:00 AM66 °FScattered clouds.8 mph83%30.21 "HgN/A
7:30 AM64 °FScattered clouds.3 mph88%30.18 "HgN/A
7:00 AM61 °FScattered clouds.2 mph100%30.18 "Hg5 mi
6:30 AM59 °FScattered clouds.1 mph94%30.18 "Hg5 mi
6:00 AM55 °FPassing clouds.6 mph100%30.18 "Hg6 mi
5:30 AM55 °FFog.2 mph100%30.18 "HgN/A
4:30 AM54 °FPassing clouds.No wind100%30.18 "Hg6 mi
4:00 AM54 °FPartly cloudy.No wind100%30.18 "Hg5 mi
3:30 AM55 °FPassing clouds.No wind94%30.18 "Hg5 mi
3:00 AM55 °FPassing clouds.No wind100%30.18 "Hg5 mi
2:30 AM57 °FPassing clouds.2 mph94%30.18 "HgN/A
2:00 AM59 °FPassing clouds.3 mph94%30.18 "HgN/A
1:30 AM57 °FPassing clouds.No wind100%30.18 "HgN/A
1:00 AM57 °FPassing clouds.No wind100%30.18 "HgN/A
12:30 AM59 °FPassing clouds.No wind94%30.18 "HgN/A
12:00 AM61 °FPassing clouds.No wind94%30.18 "HgN/A
11:30 PM
Jul 21
64 °FPassing clouds.1 mph83%30.18 "HgN/A
11:00 PM64 °FPassing clouds.5 mph88%30.18 "HgN/A
10:30 PM64 °FPassing clouds.5 mph83%30.15 "HgN/A
10:00 PM64 °FPassing clouds.5 mph83%30.15 "HgN/A
9:30 PM66 °FScattered clouds.6 mph78%30.15 "HgN/A
9:00 PM68 °FScattered clouds.7 mph78%30.15 "HgN/A
Weather by CustomWeather, © 2014

See weather overviewHow to use our weather pages